Regional Weather Roundup
Issued by NWS

Home | Current Version | Previous Version | Text Only | Print | Product List | Glossary On
Versions: 1 2 3 4 5 6 7 8 9 10 11 12 13 14 15 16 17 18 19 20 21 22 23 24 25 26 27 28 29 30 31 32 33 34 35 36 37 38 39 40 41 42 43 44 45 46 47 48 49 50
000
ASUS43 KDTX 040201
RWRMI
MICHIGAN HOURLY REGIONAL WEATHER ROUNDUP
NATIONAL WEATHER SERVICE DETROIT/PONTIAC MI
1000 PM EDT FRI JUL 03 2015

NOTE: "FAIR" INDICATES FEW OR NO CLOUDS BELOW 12,000 FEET WITH NO
SIGNIFICANT WEATHER AND/OR OBSTRUCTION TO VISIBILITY.

MIZ047>049-052>055-059>063-066>070-074>076-081>083-040300-
SOUTHEAST LOWER MICHIGAN

CITY           SKY/WX    TMP DP  RH WIND       PRES   REMARKS
ADRIAN         CLEAR     62  56  80 CALM      29.93R
ALMA           CLEAR     60  54  81 CALM      29.94R
ANN ARBOR      CLEAR     58  56  93 CALM      29.92R
BAD AXE        PTCLDY    58  52  80 CALM      29.95R
CARO           CLEAR     55  53  92 CALM      29.93S
DETROIT CITY   CLEAR     67  51  56 CALM      29.92S
DETROIT        MOCLDY    66  55  67 S3        29.93R
FLINT          PTCLDY    66  46  48 CALM      29.93S
GROSSE ILE     CLEAR     64  55  72 CALM      29.91S HAZE
HILLSDALE      CLEAR     63  60  90 CALM      29.93S
HOWELL         CLEAR     63  54  72 N5        29.93S

CITY           SKY/WX    TMP DP  RH WIND       PRES   REMARKS
JACKSON        CLEAR     62  56  80 CALM      29.93S
LAMBERTVILLE   CLEAR     62  55  78 CALM      29.93R HAZE
LANSING        CLEAR     63  52  67 CALM      29.94R
LAPEER         FAIR      58  53  81 CALM      29.94R
MASON          CLEAR     61  54  78 CALM      29.93S
MONROE         CLEAR     60  56  87 CALM      29.92R
MT. CLEMENS    CLEAR     63  55  76 CALM      29.91R
PONTIAC        PTCLDY    64  53  67 E6        29.92R
PORT HOPE        N/A     59  55  87 CALM      29.93R
PORT HURON     PTCLDY    59  57  94 CALM      29.94R
TRI CITIES     CLEAR     67  45  45 CALM      29.94R
MIDLAND        FAIR      59  51  75 CALM      29.92S
TROY           CLEAR     67  52  57 CALM      29.95R
SAGINAW HB     CLEAR     61  48  63 CALM      29.93S
$$
MIZ043>046-050>051-056>058-064>065-071>073-077>080-040300-
SOUTHWEST LOWER MICHIGAN

CITY           SKY/WX    TMP DP  RH WIND       PRES   REMARKS
BATTLE CREEK   CLEAR     66  58  75 CALM      29.93S
BENTON HARBOR  CLEAR     61  56  83 CALM      29.93S
BIG RAPIDS     PTCLDY    64  51  62 CALM      29.93R
COLDWATER      CLEAR     63  55  75 CALM      29.93R
FREMONT        FAIR      61  48  62 CALM      29.93R
HOLLAND        CLEAR     63  52  67 CALM      29.93S
GRAND RAPIDS   MOCLDY    67  53  61 W6        29.93R
IONIA          FAIR      62  55  76 CALM      29.92S
KALAMAZOO      CLEAR     64  55  72 N6        29.93R
LUDINGTON      CLEAR     58  53  81 CALM        N/A
MARSHALL       CLEAR     62  55  77 CALM      29.92S
MOUNT PLEASANT PTCLDY    60  56  84 CALM      29.93R
MUSKEGON       MOCLDY    62  52  69 CALM      29.93R
SOUTH HAVEN    CLEAR     60  55  84 CALM      29.93S
$$
MIZ016>042-040300-
NORTHERN LOWER MICHIGAN

CITY           SKY/WX    TMP DP  RH WIND       PRES   REMARKS
ALPENA         LGT RAIN  68  50  52 S5        29.90F
BEAVER ISLAND  CLOUDY    58  51  75 SW12      29.89S
BELLAIRE       MOCLDY    60  55  84 CALM      29.91S
CADILLAC       PTCLDY    61  52  73 CALM      29.93S
CHARLEVOIX     MOCLDY    67  48  52 S6        29.92F
FRANKFORT      MOCLDY    66  37  33 CALM      29.91S
GAYLORD        MOCLDY    65  53  65 CALM      29.93S
GRAYLING       MOCLDY    62  56  78 W3        29.94R
HARBOR SPRINGS MOCLDY    63  55  73 CALM      29.90S
HOUGHTON LAKE  PTCLDY    63  53  70 S6        29.93S
MANISTEE         N/A     61  48  63 CALM      29.92S VSB 1/2
OSCODA         PTCLDY    63  51  66 CALM      29.92S
PELLSTON       CLOUDY    63  55  75 CALM      29.90S
ROGERS CITY    CLOUDY    61  57  85 CALM      29.92R
TRAVERSE CITY  CLOUDY    65  51  60 CALM      29.90S
$$
MIZ007>008-015-040300-
EASTERN UPPER MICHIGAN

CITY           SKY/WX    TMP DP  RH WIND       PRES   REMARKS
KINROSS        CLOUDY    61  55  82 S3        29.88F
MACKINAC ISLAN MOCLDY    62  55  78 SW7       29.88F
NEWBERRY       CLOUDY    59  51  74 SW9       29.87S
S. S. MARIE    CLOUDY    63  54  72 S5        29.88S
MUNISING         N/A     60  56  86 CALM      29.86R
$$
MIZ004>006-011>014-085-040300-
CENTRAL UPPER MICHIGAN

CITY           SKY/WX    TMP DP  RH WIND       PRES   REMARKS
MANISTIQUE     PTCLDY    57  51  80 S10       29.86S
ESCANABA       CLEAR     66  59  77 SW6       29.84S
MENOMINEE      CLEAR     68  54  60 SW6       29.86S
SAWYER-GWINN   MOCLDY    64  57  77 NE5       29.88R
$$
MIZ001>003-009>011-084-040300-
WESTERN UPPER MICHIGAN

CITY           SKY/WX    TMP DP  RH WIND       PRES   REMARKS
IRON MOUNTAIN  PTCLDY    68  57  68 CALM      29.85F
HOUGHTON       CLEAR     63  58  83 CALM      29.85S
COPPER HARBOR    N/A     60  55  83 N7        29.85R
IRONWOOD       MOCLDY    64  61  88 CALM      29.85R
$$

ABBREVIATIONS USED IN REMARKS
   TC - TEMPERATURE IN CELSIUS
  WCI - WIND CHILL INDEX
   HX - HEAT INDEX
  VSB - VISIBILITY




USA.gov is the U.S. government's official web portal to all federal, state and local government web resources and services.